^^
Saratoga-Weather Station Historical Data
Daily Summary for August 3, 2021 Units:  English    Metric   Both
Daily Weekly Monthly Yearly Custom
  High: Low: Average:
Temperature: 35.8 °F 34.7 °F 35.4 °F
Dew Point: 32 °F 30.2 °F 30.9 °F
Humidity: 89% 80% 84%
Wind Speed: 6mph 0mph 0.9mph
Wind Gust: 8mph - -
Wind- - South
Pressure: 29.9 in 29.9 in -
Precipitation: 0 in    
Historical Graphs
 
 
Tabular Data for August 3, 2021
Time Temperature Dew Point Pressure Wind Wind Speed Wind Gust Humidity Rainfall Rate (Hourly) solar
00:02 34.9 °F 32 °F 29.9 in North 0.9 mph 1 mph 89% 0 in 0 W/m2
00:07 34.9 °F 32 °F 29.9 in Calm   1 mph 89% 0 in 0 W/m2
00:12 34.9 °F 32 °F 29.9 in Calm   1 mph 89% 0 in 0 W/m2
00:17 34.9 °F 32 °F 29.9 in NE 0.9 mph 2 mph 89% 0 in 0 W/m2
00:22 34.9 °F 32 °F 29.9 in Calm   1 mph 89% 0 in 0 W/m2
00:27 34.9 °F 32 °F 29.9 in North 0.9 mph 2 mph 89% 0 in 0 W/m2
00:32 34.9 °F 32 °F 29.9 in Calm   2 mph 89% 0 in 0 W/m2
00:37 34.9 °F 31.6 °F 29.9 in Calm   1 mph 88% 0 in 0 W/m2
00:42 34.9 °F 31.6 °F 29.9 in Calm   2 mph 88% 0 in 0 W/m2
00:47 34.9 °F 31.6 °F 29.9 in Calm     88% 0 in 0 W/m2
00:52 34.9 °F 31.6 °F 29.9 in Calm   2 mph 88% 0 in 0 W/m2
00:57 34.9 °F 31.6 °F 29.9 in Calm     88% 0 in 0 W/m2
01:02 34.9 °F 31.6 °F 29.9 in NE 0.9 mph 2 mph 88% 0 in 0 W/m2
01:07 34.9 °F 31.6 °F 29.9 in Calm     88% 0 in 0 W/m2
01:12 34.9 °F 31.6 °F 29.9 in Calm   2 mph 88% 0 in 0 W/m2
01:17 34.9 °F 31.6 °F 29.9 in Calm   1 mph 88% 0 in 0 W/m2
01:22 34.9 °F 31.6 °F 29.9 in Calm     88% 0 in 0 W/m2
01:27 34.9 °F 32 °F 29.9 in Calm   1 mph 89% 0 in 0 W/m2
01:32 34.9 °F 32 °F 29.9 in Calm     89% 0 in 0 W/m2
01:37 34.9 °F 32 °F 29.9 in Calm     89% 0 in 0 W/m2
01:42 34.7 °F 31.8 °F 29.9 in NNW 2 mph 2 mph 89% 0 in 0 W/m2
01:47 34.7 °F 31.5 °F 29.9 in NE 2 mph 2 mph 88% 0 in 0 W/m2
01:52 34.9 °F 31.6 °F 29.9 in Calm   1 mph 88% 0 in 0 W/m2
01:57 34.9 °F 31.6 °F 29.9 in Calm   1 mph 88% 0 in 0 W/m2
02:02 34.9 °F 31.6 °F 29.9 in Calm   1 mph 88% 0 in 0 W/m2
02:07 35.1 °F 31.8 °F 29.9 in NNE 0.9 mph 2 mph 88% 0 in 0 W/m2
02:12 35.1 °F 31.6 °F 29.9 in Calm     87% 0 in 0 W/m2
02:17 35.1 °F 31.6 °F 29.9 in WNW 0.9 mph 1 mph 87% 0 in 0 W/m2
02:22 35.1 °F 31.3 °F 29.9 in Calm   3 mph 86% 0 in 0 W/m2
02:27 35.2 °F 31.5 °F 29.9 in SE 0.9 mph 1 mph 86% 0 in 0 W/m2
02:32 35.2 °F 31.1 °F 29.9 in Calm   4 mph 85% 0 in 0 W/m2
02:37 35.2 °F 31.1 °F 29.9 in West 2.9 mph 3 mph 85% 0 in 0 W/m2
02:42 35.4 °F 31.1 °F 29.9 in NE 0.9 mph 2 mph 84% 0 in 0 W/m2
02:47 35.4 °F 31.1 °F 29.9 in NW 2 mph 2 mph 84% 0 in 0 W/m2
02:52 35.4 °F 30.7 °F 29.9 in Calm   4 mph 83% 0 in 0 W/m2
02:57 35.4 °F 30.7 °F 29.9 in North 0.9 mph 2 mph 83% 0 in 0 W/m2
03:02 35.4 °F 30.7 °F 29.9 in NNW 0.9 mph 4 mph 83% 0 in 0 W/m2
03:07 35.6 °F 30.7 °F 29.9 in Calm   4 mph 82% 0 in 0 W/m2
03:12 35.8 °F 30.6 °F 29.9 in Calm   2 mph 81% 0 in 0 W/m2
03:17 35.8 °F 30.6 °F 29.9 in Calm   2 mph 81% 0 in 0 W/m2
03:22 35.8 °F 30.6 °F 29.9 in North 0.9 mph 4 mph 81% 0 in 0 W/m2
03:27 35.8 °F 30.6 °F 29.9 in NW 0.9 mph 3 mph 81% 0 in 0 W/m2
03:32 35.8 °F 30.6 °F 29.9 in North 2 mph 2 mph 81% 0 in 0 W/m2
03:37 35.8 °F 30.6 °F 29.9 in NE 0.9 mph 2 mph 81% 0 in 0 W/m2
03:42 35.8 °F 30.2 °F 29.9 in North 0.9 mph 2 mph 80% 0 in 0 W/m2
03:48 35.8 °F 30.6 °F 29.9 in Calm   2 mph 81% 0 in 0 W/m2
03:53 35.8 °F 30.6 °F 29.9 in NNE 0.9 mph 2 mph 81% 0 in 0 W/m2
03:58 35.8 °F 30.6 °F 29.9 in WNW 2 mph 5 mph 81% 0 in 0 W/m2
04:03 35.8 °F 30.6 °F 29.9 in West 0.9 mph 3 mph 81% 0 in 0 W/m2
04:08 35.8 °F 30.6 °F 29.9 in West 0.9 mph 5 mph 81% 0 in 0 W/m2
04:13 35.8 °F 30.6 °F 29.9 in North 0.9 mph 2 mph 81% 0 in 0 W/m2
04:18 35.8 °F 30.6 °F 29.9 in Calm   2 mph 81% 0 in 0 W/m2
04:23 35.8 °F 30.6 °F 29.9 in ENE 2.9 mph 3 mph 81% 0 in 0 W/m2
04:28 35.8 °F 30.2 °F 29.9 in NNE 0.9 mph 5 mph 80% 0 in 0 W/m2
04:33 35.8 °F 30.2 °F 29.9 in ENE 0.9 mph 2 mph 80% 0 in 0 W/m2
04:38 35.8 °F 30.6 °F 29.9 in ENE 2 mph 6 mph 81% 0 in 0 W/m2
04:43 35.8 °F 30.6 °F 29.9 in Calm   2 mph 81% 0 in 0 W/m2
04:48 35.8 °F 30.6 °F 29.9 in Calm   6 mph 81% 0 in 0 W/m2
04:53 35.8 °F 30.6 °F 29.9 in Calm   3 mph 81% 0 in 0 W/m2
04:58 35.8 °F 30.6 °F 29.9 in ESE 0.9 mph 3 mph 81% 0 in 0 W/m2
05:03 35.6 °F 30.4 °F 29.9 in WSW 0.9 mph 1 mph 81% 0 in 0 W/m2
05:08 35.6 °F 30.4 °F 29.9 in Calm   1 mph 81% 0 in 0 W/m2
05:13 35.6 °F 30.4 °F 29.9 in NNW 0.9 mph 4 mph 81% 0 in 0 W/m2
05:18 35.6 °F 30.4 °F 29.9 in NNE 0.9 mph 4 mph 81% 0 in 0 W/m2
05:23 35.6 °F 30.7 °F 29.9 in NE 2 mph 3 mph 82% 0 in 0 W/m2
05:28 35.6 °F 30.7 °F 29.9 in NE 0.9 mph 4 mph 82% 0 in 0 W/m2
05:33 35.4 °F 30.6 °F 29.9 in NNW 0.9 mph 3 mph 82% 0 in 0 W/m2
05:38 35.4 °F 30.6 °F 29.9 in NW 2 mph 3 mph 82% 0 in 0 W/m2
05:43 35.4 °F 30.6 °F 29.9 in NNW 2 mph 7 mph 82% 0 in 0 W/m2
05:48 35.6 °F 30.7 °F 29.9 in Calm   2 mph 82% 0 in 0 W/m2
05:53 35.6 °F 30.7 °F 29.9 in Calm   7 mph 82% 0 in 0 W/m2
05:58 35.6 °F 30.7 °F 29.9 in Calm   2 mph 82% 0 in 0 W/m2
06:03 35.6 °F 30.9 °F 29.9 in NNW 0.9 mph 3 mph 83% 0 in 0 W/m2
06:08 35.4 °F 30.6 °F 29.9 in NW 2 mph 4 mph 82% 0 in 0 W/m2
06:13 35.4 °F 30.6 °F 29.9 in NNE 0.9 mph 3 mph 82% 0 in 0 W/m2
06:18 35.4 °F 30.7 °F 29.9 in WNW 0.9 mph 2 mph 83% 0 in 0 W/m2
06:23 35.4 °F 30.6 °F 29.9 in NNW 2 mph 2 mph 82% 0 in 0 W/m2
06:28 35.4 °F 30.6 °F 29.9 in NNW 2 mph 4 mph 82% 0 in 0 W/m2
06:33 35.4 °F 30.6 °F 29.9 in ENE 2 mph 3 mph 82% 0 in 0 W/m2
06:38 35.4 °F 30.6 °F 29.9 in NE 0.9 mph 3 mph 82% 0 in 0 W/m2
06:43 35.4 °F 30.6 °F 29.9 in Calm   5 mph 82% 0 in 0 W/m2
06:48 35.4 °F 30.6 °F 29.9 in East 0.9 mph 2 mph 82% 0 in 0 W/m2
06:53 35.4 °F 30.6 °F 29.9 in Calm   4 mph 82% 0 in 0 W/m2
06:58 35.4 °F 30.6 °F 29.9 in NNE 2.9 mph 4 mph 82% 0 in 0 W/m2
07:03 35.4 °F 30.6 °F 29.9 in WNW 0.9 mph 6 mph 82% 0 in 0 W/m2
07:08 35.6 °F 30.7 °F 29.9 in NNW 0.9 mph 3 mph 82% 0 in 0 W/m2
07:13 35.6 °F 30.7 °F 29.9 in ENE 0.9 mph 2 mph 82% 0 in 0 W/m2
07:18 35.6 °F 30.7 °F 29.9 in Calm   2 mph 82% 0 in 0 W/m2
07:23 35.6 °F 30.7 °F 29.9 in North 2.9 mph 8 mph 82% 0 in 0 W/m2
07:28 35.6 °F 30.7 °F 29.9 in NNW 2 mph 4 mph 82% 0 in 0 W/m2
07:33 35.6 °F 30.7 °F 29.9 in NE 0.9 mph 8 mph 82% 0 in 0 W/m2
07:38 35.6 °F 30.7 °F 29.9 in NNW 4.9 mph 5 mph 82% 0 in 0 W/m2
07:43 35.6 °F 30.7 °F 29.9 in ESE 0.9 mph 4 mph 82% 0 in 0 W/m2
07:48 35.6 °F 30.7 °F 29.9 in NE 0.9 mph 4 mph 82% 0 in 0 W/m2
07:53 35.6 °F 30.4 °F 29.9 in NW 2 mph 4 mph 81% 0 in 0 W/m2
07:58 35.6 °F 30.4 °F 29.9 in ESE 0.9 mph 2 mph 81% 0 in 0 W/m2
08:03 35.4 °F 30.6 °F 29.9 in NW 0.9 mph 4 mph 82% 0 in 0 W/m2
08:08 35.4 °F 30.6 °F 29.9 in North 2 mph 2 mph 82% 0 in 0 W/m2
08:13 35.4 °F 30.6 °F 29.9 in Calm   4 mph 82% 0 in 0 W/m2
08:18 35.4 °F 30.6 °F 29.9 in NE 0.9 mph 3 mph 82% 0 in 0 W/m2
08:23 35.4 °F 30.6 °F 29.9 in East 6 mph 6 mph 82% 0 in 0 W/m2
08:28 35.4 °F 30.6 °F 29.9 in Calm   4 mph 82% 0 in 0 W/m2
08:33 35.4 °F 30.6 °F 29.9 in Calm   5 mph 82% 0 in 0 W/m2
08:38 35.4 °F 30.6 °F 29.9 in ENE 2 mph 3 mph 82% 0 in 0 W/m2
08:43 35.4 °F 30.6 °F 29.9 in NW 0.9 mph 5 mph 82% 0 in 0 W/m2
08:48 35.4 °F 30.7 °F 29.9 in North 2 mph 2 mph 83% 0 in 0 W/m2
08:53 35.4 °F 30.6 °F 29.9 in NE 0.9 mph 3 mph 82% 0 in 0 W/m2
08:58 35.4 °F 30.6 °F 29.9 in NW 0.9 mph 2 mph 82% 0 in 0 W/m2
09:03 35.4 °F 30.7 °F 29.9 in NW 2 mph 4 mph 83% 0 in 0 W/m2
09:08 35.4 °F 30.7 °F 29.9 in NNW 0.9 mph 5 mph 83% 0 in 5 W/m2
09:13 35.4 °F 30.7 °F 29.9 in NNE 0.9 mph 3 mph 83% 0 in 7 W/m2
09:18 35.4 °F 30.7 °F 29.9 in Calm   5 mph 83% 0 in 7 W/m2
09:23 35.4 °F 30.7 °F 29.9 in NE 0.9 mph 3 mph 83% 0 in 9 W/m2
09:28 35.4 °F 30.7 °F 29.9 in NNW 2 mph 3 mph 83% 0 in 7 W/m2
09:33 35.4 °F 30.7 °F 29.9 in NNW 0.9 mph 3 mph 83% 0 in 9 W/m2
09:38 35.4 °F 30.7 °F 29.9 in WSW 2.9 mph 4 mph 83% 0 in 11 W/m2
09:43 35.4 °F 30.7 °F 29.9 in SE 0.9 mph 3 mph 83% 0 in 11 W/m2
09:48 35.4 °F 30.7 °F 29.9 in Calm   2 mph 83% 0 in 12 W/m2
09:53 35.4 °F 30.7 °F 29.9 in NNW 2 mph 2 mph 83% 0 in 12 W/m2
09:59 35.4 °F 30.7 °F 29.9 in NW 0.9 mph 3 mph 83% 0 in 14 W/m2
10:04 35.4 °F 30.7 °F 29.9 in Calm   2 mph 83% 0 in 16 W/m2
10:09 35.4 °F 30.7 °F 29.9 in North 0.9 mph 3 mph 83% 0 in 16 W/m2
10:14 35.4 °F 30.7 °F 29.9 in ENE 0.9 mph 3 mph 83% 0 in 19 W/m2
10:19 35.4 °F 30.7 °F 29.9 in ENE 2 mph 4 mph 83% 0 in 19 W/m2
10:24 35.4 °F 30.7 °F 29.9 in WNW 0.9 mph 2 mph 83% 0 in 16 W/m2
10:29 35.4 °F 30.7 °F 29.9 in NNE 0.9 mph 4 mph 83% 0 in 16 W/m2
10:34 35.4 °F 30.7 °F 29.9 in WNW 2 mph 4 mph 83% 0 in 18 W/m2
10:39 35.4 °F 30.7 °F 29.9 in Calm   3 mph 83% 0 in 19 W/m2
10:44 35.4 °F 30.7 °F 29.9 in Calm   4 mph 83% 0 in 21 W/m2
10:49 35.4 °F 30.7 °F 29.9 in North 0.9 mph 2 mph 83% 0 in 25 W/m2
10:54 35.4 °F 30.7 °F 29.9 in NNE 0.9 mph 3 mph 83% 0 in 23 W/m2
10:59 35.4 °F 30.7 °F 29.9 in NNW 2 mph 3 mph 83% 0 in 25 W/m2
11:04 35.4 °F 30.7 °F 29.9 in NNW 0.9 mph 3 mph 83% 0 in 23 W/m2
11:09 35.4 °F 30.7 °F 29.9 in North 0.9 mph 2 mph 83% 0 in 19 W/m2
11:14 35.4 °F 30.7 °F 29.9 in WNW 0.9 mph 2 mph 83% 0 in 21 W/m2
11:19 35.4 °F 30.7 °F 29.9 in ENE 0.9 mph 4 mph 83% 0 in 23 W/m2
11:24 35.4 °F 30.7 °F 29.9 in NW 4 mph 4 mph 83% 0 in 26 W/m2
11:29 35.4 °F 31.1 °F 29.9 in NNE 0.9 mph 2 mph 84% 0 in 28 W/m2
11:34 35.4 °F 31.1 °F 29.9 in Calm   3 mph 84% 0 in 26 W/m2
11:39 35.2 °F 30.9 °F 29.9 in Calm   1 mph 84% 0 in 26 W/m2
11:44 35.2 °F 30.9 °F 29.9 in NNW 2 mph 6 mph 84% 0 in 32 W/m2
11:49 35.2 °F 30.9 °F 29.9 in Calm   3 mph 84% 0 in 32 W/m2
11:54 35.2 °F 30.9 °F 29.9 in Calm   4 mph 84% 0 in 33 W/m2
Juneau County Weather
Compliments of Weather Underground - 2 mb